[[{"header":{"parameterUnit":"m.s-1","parameterCategory":1,"la1":30.2991,"la2":30.254,"lo1":-89.0895,"lo2":-89.0444,"dy":0.0017,"dx":0.0017,"nx":28,"ny":28,"refTime":"2025-07-18T09:00:00:Z","depth":0,"parameterNumber":2,"parameterNumberName":"U-component_of_WINDS"},"data":[0,0,0,0,0,0,0,0,0,0,0,0,0,0,0,0,0,0,0,0,0,0,0,0,0,0,0,0,0,0,0,0,0,0,0,0,0,0,0,0,0,0,0,0,0,0,0,0,0,0,0,0,0,0,0,0,0,0,2.2961,2.2961,0,2.2952,2.2952,2.2952,2.288,2.2878,2.2876,2.2875,2.2866,2.2867,2.2869,0,0,0,0,0,0,0,0,0,0,0,0,0,2.2917,2.2918,2.2961,2.2961,2.2961,2.2952,2.2952,2.2952,2.288,2.2878,2.2876,2.2874,2.2866,2.2867,2.2869,0,0,0,0,0,0,0,0,0,0,0,0,0,2.2925,2.2919,2.2961,2.2924,2.2921,2.2952,2.2952,2.2952,2.2881,2.2878,2.2875,2.2873,2.2865,2.2867,2.2869,2.2935,0,0,2.2876,2.2876,0,0,0,0,0,0,0,0,2.2925,2.2927,2.293,2.2927,2.2923,2.2914,2.2933,2.2946,2.2881,2.2896,2.2875,2.2872,2.2884,2.2885,2.2889,2.2935,2.2934,2.2876,2.2877,2.2878,2.2879,0,0,0,0,0,0,0,2.2924,2.2927,2.2958,2.293,2.2926,2.2908,2.2906,2.2935,2.2905,2.2895,2.2889,2.2889,2.2882,2.2887,2.2888,2.2934,2.2876,2.2878,2.2879,2.288,2.3032,2.3035,0,0,0,0,0,0,2.2929,2.2927,2.2958,2.2957,2.2917,2.2911,2.2909,2.292,2.2905,2.29,2.2891,2.2886,2.2885,2.2886,2.2887,2.2962,2.2878,2.288,2.2881,2.3029,2.3033,2.3036,0,0,0,0,0,0,2.2928,2.2932,2.2958,2.2941,2.2942,2.2915,2.2927,2.2921,2.2926,2.2902,2.2897,2.2902,2.2882,2.2884,2.2923,2.2961,2.2881,2.2883,2.3026,2.303,2.3034,2.3113,0,0,0,0,0,0,2.2927,2.2932,2.2957,2.2942,2.2944,2.2995,2.293,2.2923,2.293,2.2922,2.2911,2.2906,2.2881,2.2921,2.2925,2.2962,2.2884,2.3023,2.3028,2.3033,2.3107,2.3119,2.313,0,0,0,0,0,2.2926,2.298,2.2959,2.2963,2.2974,2.2997,2.2998,2.2967,2.2933,2.2957,2.2942,2.2907,2.2956,2.2925,2.293,2.2968,2.302,2.3026,2.3033,2.3101,2.3117,2.3129,0,0,0,0,0,0,2.3001,2.2978,2.2953,2.3005,2.3003,2.2985,2.3015,2.2985,2.2993,2.2986,2.2948,2.2946,2.299,2.2983,2.2949,2.303,2.2982,2.2989,2.3033,2.3047,2.3058,2.3058,2.2886,0,0,0,0,0,2.3024,2.3044,2.3023,2.307,2.307,2.3043,2.3052,2.3028,2.3025,2.3024,2.3012,2.301,2.3025,2.3036,2.3049,2.3106,2.3101,2.3134,2.3146,2.3156,2.3162,2.319,2.3204,2.3056,2.3056,2.3056,0,0,2.3071,2.3061,2.3076,2.3085,2.3081,2.3102,2.3043,2.3068,2.3084,2.3028,2.3063,2.3055,2.305,2.3098,2.3119,2.3094,2.3202,2.3164,2.3171,2.3172,2.3198,2.3212,2.3224,2.3061,2.306,2.3059,0,0,2.3167,2.3162,2.3199,2.3197,2.3191,2.3173,2.3182,2.3168,2.3159,2.3194,2.3152,2.317,2.3198,2.3196,2.3199,2.3294,2.326,2.3299,2.3358,2.3386,2.3398,2.3408,2.344,2.3452,2.3306,2.3306,2.3306,0,2.3226,2.3256,2.3223,2.325,2.3255,2.3206,2.3243,2.3242,2.3242,2.3246,2.3218,2.325,2.3244,2.329,2.3313,2.3318,2.3326,2.3299,2.3399,2.3408,2.3417,2.3447,2.346,2.3311,2.331,2.331,2.3309,0,2.3328,2.335,2.3381,2.338,2.3389,2.3421,2.3393,2.3405,2.3381,2.3365,2.3401,2.3392,2.3401,2.3411,2.3388,2.3453,2.3438,2.3406,2.3356,2.3436,2.3464,2.3475,2.3317,2.3315,2.3314,2.3313,0,0,2.347,2.345,2.3462,2.346,2.3451,2.3467,2.3497,2.3506,2.3516,2.3518,2.3541,2.3566,2.3535,2.3538,2.3515,2.354,2.3613,2.3504,2.3503,2.3522,2.3682,2.3705,2.3719,2.3592,2.3594,2.3596,2.3682,0,2.356,2.361,2.358,2.3634,2.3653,2.3606,2.3632,2.3629,2.3616,2.3629,2.3615,2.3631,2.3591,2.3592,2.3615,2.3599,2.3644,2.3593,2.3612,2.3613,2.3612,2.3733,2.3758,2.3839,2.3692,2.3694,2.3696,0,2.3672,2.3677,2.3732,2.3717,2.3724,2.3748,2.3753,2.3767,2.3763,2.3751,2.3754,2.3725,2.3753,2.3706,2.3743,2.3709,2.3716,2.3709,2.3712,2.3711,2.3658,2.3733,2.3865,2.3876,2.3712,2.3711,2.371,0,2.3767,2.3788,2.3823,2.3824,2.3808,2.3826,2.382,2.3813,2.3819,2.3824,2.3828,2.3836,2.384,2.3847,2.3821,2.3789,2.3862,2.3812,2.3851,2.3852,2.3867,2.3866,2.3999,2.3875,2.3875,2.3875,2.3875,0,2.3869,2.3904,2.3865,2.3887,2.3925,2.3891,2.3929,2.3919,2.3913,2.3931,2.3893,2.3911,2.3876,2.389,2.387,2.3903,2.3906,2.3897,2.389,2.3899,2.39,2.3901,2.3894,2.3878,2.3877,2.3877,2.3876,0,2.3981,2.3957,2.3991,2.3974,2.397,2.3998,2.3983,2.4002,2.3986,2.401,2.4013,2.3988,2.4003,2.3978,2.399,2.3977,2.4022,2.4009,2.4023,2.4018,2.4058,2.4054,2.4195,2.4211,2.4079,2.408,2.4082,0,2.4047,2.4072,2.4057,2.4066,2.4062,2.4078,2.4084,2.4052,2.406,2.4057,2.4076,2.4088,2.4095,2.4122,2.4105,2.4114,2.4098,2.4147,2.41,2.4107,2.4097,2.4094,2.4096,2.4156,2.4158,2.4159,2.416,0,2.4165,2.4151,2.4161,2.4167,2.4176,2.4179,2.4179,2.4189,2.4156,2.4167,2.4181,2.4187,2.4199,2.4211,2.4216,2.421,2.418,2.4176,2.4185,2.4193,2.4199,2.4194,2.4048,2.4172,2.4171,2.417,2.417,2.4169,2.4254,2.4274,2.4266,2.4278,2.4275,2.4276,2.4292,2.4278,2.4289,2.4296,2.4277,2.4296,2.429,2.4293,2.4291,2.4305,2.4283,2.4297,2.43,2.4304,2.4309,2.4199,2.4306,2.4306,2.4306,2.4305,2.4305,0,2.4368,2.4361,2.4372,2.4373,2.4383,2.4354,2.4352,2.4362,2.4379,2.4376,2.4384,2.44,2.4412,2.4396,2.4404,2.4418,2.4404,2.4421,2.4419,2.4418,2.4329,2.4319,2.4432,2.4432,2.4432,2.4432,2.4432,2.4432,2.4429,2.446,2.4446,2.4475,2.4467,2.4484,2.4486,2.4487,2.4484,2.4503,2.4512,2.4502,2.4493,2.45,2.4509,2.4504,2.4508,2.453,2.452,2.4437,2.4424,2.4412,2.4403,2.4532,2.4532,2.4607,2.4608,2.4608]},{"header":{"parameterUnit":"m.s-1","parameterCategory":1,"la1":30.2991,"la2":30.254,"lo1":-89.0895,"lo2":-89.0444,"dy":0.0017,"dx":0.0017,"nx":28,"ny":28,"refTime":"2025-07-18T09:00:00:Z","depth":0,"parameterNumber":3,"parameterNumberName":"V-component_of_WINDS"},"data":[0,0,0,0,0,0,0,0,0,0,0,0,0,0,0,0,0,0,0,0,0,0,0,0,0,0,0,0,0,0,0,0,0,0,0,0,0,0,0,0,0,0,0,0,0,0,0,0,0,0,0,0,0,0,0,0,0,0,4.4753,4.4756,0,4.4958,4.496,4.4963,4.4995,4.4993,4.4991,4.4989,4.5189,4.5196,4.5203,0,0,0,0,0,0,0,0,0,0,0,0,0,4.4379,4.4386,4.4753,4.4756,4.4758,4.4958,4.496,4.4963,4.4995,4.4993,4.4991,4.4989,4.5187,4.5195,4.5204,0,0,0,0,0,0,0,0,0,0,0,0,0,4.4558,4.4388,4.4753,4.4799,4.4805,4.4957,4.496,4.4964,4.4995,4.4993,4.499,4.4988,4.5184,4.5194,4.5205,4.5323,0,0,4.5237,4.5241,0,0,0,0,0,0,0,0,4.4548,4.4572,4.4789,4.4796,4.4803,4.4948,4.4902,4.5084,4.4996,4.4923,4.4989,4.4986,4.5111,4.5127,4.5171,4.5332,4.5341,4.5238,4.5244,4.5249,4.5252,0,0,0,0,0,0,0,4.4536,4.4563,4.4834,4.4792,4.4801,4.4805,4.4828,4.4936,4.5029,4.4929,4.4932,4.4956,4.5114,4.5161,4.5176,4.5344,4.5237,4.5247,4.5253,4.5257,4.5609,4.5612,0,0,0,0,0,0,4.4516,4.4553,4.4827,4.484,4.4667,4.4814,4.4839,4.4904,4.5028,4.5044,4.4958,4.4957,4.5144,4.5164,4.5183,4.5328,4.5248,4.5258,4.5264,4.5606,4.561,4.5613,0,0,0,0,0,0,4.4508,4.4541,4.4819,4.4697,4.4733,4.4824,4.4896,4.491,4.4957,4.505,4.5066,4.499,4.5143,4.5168,4.5288,4.5335,4.5263,4.5273,4.5602,4.5607,4.5611,4.5619,0,0,0,0,0,0,4.4497,4.4538,4.4586,4.4698,4.474,4.4924,4.4899,4.4915,4.4976,4.4976,4.5084,4.5099,4.5143,4.5272,4.5298,4.5348,4.5281,4.5598,4.5604,4.561,4.5615,4.5624,4.5631,0,0,0,0,0,4.4484,4.4579,4.4589,4.4621,4.4803,4.4927,4.495,4.5001,4.498,4.5027,4.5087,4.5096,4.5326,4.5284,4.5314,4.5368,4.5596,4.5603,4.5609,4.5612,4.5622,4.5631,0,0,0,0,0,0,4.4467,4.4594,4.4607,4.4741,4.4823,4.4932,4.4994,4.5011,4.5098,4.5094,4.515,4.5174,4.5291,4.5341,4.5292,4.5487,4.5459,4.5472,4.545,4.5461,4.5468,4.5453,4.5289,0,0,0,0,0,4.4479,4.4573,4.4678,4.4786,4.4827,4.4903,4.4959,4.4991,4.5077,4.5111,4.518,4.526,4.535,4.5408,4.5496,4.5623,4.5645,4.5674,4.5682,4.5688,4.5698,4.5766,4.5779,4.5636,4.5635,4.5635,0,0,4.4505,4.4586,4.4641,4.4785,4.4852,4.4944,4.4932,4.503,4.5098,4.5125,4.5243,4.5295,4.5388,4.5511,4.5569,4.5557,4.5742,4.5696,4.57,4.5708,4.5774,4.5788,4.58,4.564,4.5639,4.5639,0,0,4.4599,4.4671,4.4768,4.4836,4.4939,4.4989,4.5012,4.5119,4.5156,4.5275,4.5297,4.5376,4.5531,4.5596,4.5649,4.5765,4.5775,4.5791,4.5832,4.5897,4.5908,4.5919,4.5958,4.5972,4.5802,4.5802,4.5802,0,4.4617,4.476,4.4815,4.4913,4.4974,4.5005,4.5102,4.5164,4.5289,4.5329,4.5314,4.5508,4.5573,4.571,4.5739,4.5781,4.5807,4.5779,4.5903,4.5914,4.5924,4.5962,4.5977,4.5803,4.5803,4.5803,4.5802,0,4.4776,4.4874,4.494,4.5063,4.5131,4.5227,4.5294,4.5355,4.5381,4.5431,4.555,4.5629,4.5733,4.5768,4.5793,4.5908,4.5897,4.5892,4.5865,4.5938,4.5975,4.599,4.5805,4.5804,4.5804,4.5803,0,0,4.4865,4.5017,4.504,4.5095,4.521,4.5286,4.5381,4.5486,4.5537,4.5621,4.5701,4.583,4.5826,4.5886,4.5919,4.5976,4.606,4.5964,4.5967,4.5978,4.6189,4.6191,4.6207,4.6068,4.6071,4.6073,4.618,0,4.4971,4.5148,4.5199,4.5346,4.5436,4.5465,4.5549,4.5626,4.5675,4.5755,4.5807,4.5898,4.5886,4.5923,4.5981,4.6038,4.6103,4.6031,4.6139,4.6143,4.6115,4.6227,4.623,4.6328,4.6195,4.6198,4.62,0,4.5119,4.5209,4.5365,4.5467,4.5507,4.5581,4.568,4.5757,4.5844,4.5875,4.5942,4.5968,4.6066,4.6033,4.6166,4.6115,4.6163,4.6197,4.6202,4.6213,4.6175,4.6239,4.636,4.6374,4.6223,4.6221,4.6219,0,4.5166,4.5326,4.544,4.5486,4.5609,4.566,4.5712,4.5797,4.5855,4.594,4.5978,4.6072,4.6123,4.6193,4.6243,4.6215,4.637,4.6342,4.6396,4.6395,4.6427,4.6424,4.6555,4.6459,4.6459,4.6458,4.6458,0,4.5279,4.5373,4.5463,4.5533,4.5638,4.5694,4.5795,4.5848,4.5923,4.6001,4.6031,4.6102,4.6165,4.6243,4.6283,4.6385,4.6408,4.6433,4.6442,4.643,4.6427,4.6461,4.6455,4.6462,4.6462,4.6461,4.646,0,4.535,4.5414,4.554,4.5646,4.5674,4.5746,4.5835,4.5902,4.5951,4.6049,4.6075,4.6151,4.6246,4.6303,4.6421,4.6447,4.656,4.6567,4.6532,4.6535,4.6585,4.6579,4.6742,4.6766,4.6655,4.6656,4.6657,0,4.5417,4.5491,4.5604,4.566,4.5714,4.5803,4.5864,4.5921,4.5981,4.6085,4.6138,4.6235,4.6316,4.6464,4.6527,4.6617,4.6626,4.6677,4.6639,4.6624,4.6625,4.6619,4.6626,4.6682,4.6683,4.6684,4.6685,0,4.5529,4.5557,4.5645,4.5743,4.5815,4.5895,4.5973,4.6016,4.6086,4.6152,4.6251,4.6313,4.6435,4.6529,4.6624,4.6674,4.669,4.6696,4.6713,4.6701,4.6677,4.6689,4.6547,4.6692,4.6691,4.6691,4.669,4.669,4.5599,4.5665,4.5755,4.5851,4.5917,4.5989,4.6057,4.6115,4.6199,4.6305,4.6332,4.6434,4.6516,4.6646,4.6698,4.6776,4.6768,4.6793,4.6799,4.6804,4.6804,4.6666,4.6794,4.6794,4.6794,4.6793,4.6793,0,4.5711,4.5771,4.5858,4.5969,4.6043,4.6055,4.6142,4.6202,4.6293,4.637,4.6448,4.6559,4.6651,4.6722,4.6814,4.6863,4.6872,4.6885,4.6881,4.6892,4.6807,4.6783,4.6876,4.6876,4.6876,4.6876,4.6876,4.6876,4.5778,4.589,4.5928,4.607,4.6128,4.6231,4.628,4.6345,4.6407,4.653,4.6607,4.6654,4.6727,4.6825,4.6908,4.6926,4.6958,4.6969,4.6988,4.6907,4.6898,4.689,4.6867,4.6976,4.6976,4.7067,4.7067,4.7068]}]]